BEIDOU IGSO-6           
1 41434U 16021A   19260.42807922 -.00000123  00000-0  00000+0 0  9994
2 41434  56.6545  63.4506 0036677 198.1565 344.8298  1.00272440 12772
CZ-3A R/B               
1 41435U 16021B   19260.53461932 -.00000053  00000-0 -20330-2 0  9998
2 41435  54.8710 129.2569 6900636 352.8157   1.1334  2.39501131 29940